Location: Bailleul
(50.3375°N, 2.8513°E)
Time: 16:57:21
(UTC+00:00)

Cosmos 2016 Rocket - Pass Details

Date: 29 October 2021
Orbit: 946 x 1001 km, 83.0° (Epoch: 26 November)

Event Time Altitude Azimuth Distance (km) Brightness Sun altitude
Rises 21:19:14 0° 248° (WSW) 3,642 7.3 -44.5°
Reaches altitude 10° 21:23:06 10° 272° (W) 2,691 6.7 -45.0°
Maximum altitude 21:26:20 15° 304° (NW) 2,372 6.5 -45.4°
Drops below altitude 10° 21:29:34 10° 337° (NNW) 2,686 6.8 -45.7°
Sets 21:33:26 0° 1° (N) 3,632 7.4 -46.2°
